Regional Weather Roundup
Issued by NWS

Home | Current Version | Previous Version | Text Only | Print | Product List | Glossary Off
Versions: 1 2 3 4 5 6 7 8 9 10 11 12 13 14 15 16 17 18 19 20 21 22 23 24 25 26 27 28 29 30 31 32 33 34 35 36 37 38 39 40 41 42 43 44 45 46 47 48 49 50

424
ASUS43 KOAX 222202
RWRNE

WEATHER ROUNDUP FOR NEBRASKA
NATIONAL WEATHER SERVICE OMAHA NE
500 PM CDT FRI JUL 22 2016

NOTES: SATELLITE DATA IS BEING USED TO AUGMENT CLOUD COVER ABOVE
       12000 FEET.
       "FAIR" INDICATES FEW OR NO CLOUDS BELOW 12,000 FEET WITH NO
       SIGNIFICANT WEATHER AND/OR OBSTRUCTIONS TO VISIBILITY.

  * THESE STATIONS DO NOT REPORT WEATHER SUCH AS RAIN...SNOW OR FOG.

NEZ001>004-019>022-054>056-222300-
NEBRASKA PANHANDLE

CITY           SKY/WX    TMP DP  RH WIND       PRES   REMARKS
SCOTTSBLUFF    CLOUDY    92  61  35 E10       30.01F HX  92
ALLIANCE       TSTM      71  63  75 N18G29    30.06R
CHADRON        PTSUNNY   87  62  43 SE3       29.98F
KIMBALL        SUNNY     96  53  24 S14G20    30.10S HX  93
SIDNEY         MOSUNNY   99  58  25 S20G25    30.06F HX  98
$$

NEZ057>060-069>072-079>082-222300-
SOUTHWEST NEBRASKA

CITY           SKY/WX    TMP DP  RH WIND       PRES   REMARKS
NORTH PLATTE   SUNNY     95  76  53 E10       29.97F HX 108
IMPERIAL       CLOUDY    95  63  34 E13       30.00F HX  96
LEXINGTON      SUNNY     95  75  51 E9        29.95F HX 107
MCCOOK         CLOUDY    97  66  36 SE15      29.95F HX 100
OGALLALA       CLOUDY    94  60  32 E7        30.00F HX  94
$$

NEZ005>010-023>029-035>040-094-222300-
NORTH CENTRAL NEBRASKA

CITY           SKY/WX    TMP DP  RH WIND       PRES   REMARKS
VALENTINE      MOSUNNY   98  62  30 E12       29.97F HX  99
AINSWORTH      CLOUDY    93  74  53 E7        29.97F HX 104
BROKEN BOW     SUNNY     93  77  59 E9        29.96F HX 107
O`NEILL        SUNNY     97  72  44 E9        29.94F HX 105
ORD            SUNNY     96  74  48 SE9       29.92F HX 107
THEDFORD       SUNNY     98  65  33 SE12      30.00S HX 102
$$

NEZ041-046>049-061>064-073>077-083>087-222300-
SOUTH CENTRAL NEBRASKA

CITY           SKY/WX    TMP DP  RH WIND       PRES   REMARKS
GRAND ISLAND   CLOUDY    92  70  48 S15       29.93F HX  97
AURORA         PTSUNNY   88  72  58 S8        29.94F HX  95
HASTINGS       CLOUDY    88  71  57 SW6       29.95F HX  94
HEBRON         CLOUDY    83  66  56 S18       29.90F
HOLDREGE       SUNNY     89  69  51 SE10      29.97S HX  93
KEARNEY *      MOSUNNY   91  75  59 SE13      29.96F HX 102
YORK           CLOUDY    84  72  65 S6        29.94F
$$

NEZ011>018-030>034-042>045-222300-
NORTHEAST NEBRASKA

CITY           SKY/WX    TMP DP  RH WIND       PRES   REMARKS
NORFOLK        MOSUNNY   90  77  65 SE10      29.92F HX 103
ALBION         PTSUNNY   91  78  66 SE7       29.94F HX 105
BLAIR          MOSUNNY   92  81  70 S7        29.93F HX 112
FREMONT        MOSUNNY   94  75  55 S8        29.92F HX 105
TEKAMAH        SUNNY     94  77  57 S10       29.91F HX 108
WAYNE          MOSUNNY   89  80  73 SE8       29.93F HX 107
$$

NEZ050>053-065>068-078-088>093-222300-
SOUTHEAST NEBRASKA

CITY           SKY/WX    TMP DP  RH WIND       PRES   REMARKS
LINCOLN        CLOUDY    93  77  59 SW10      29.92F HX 107
OMAHA EPPLEY   PTSUNNY   94  80  64 SE17      29.91F HX 113
BEATRICE       PTSUNNY   88  73  59 SW7       29.93F HX  95
FALLS CITY     SUNNY     96  78  56 S13       29.92F HX 112
NEBRASKA CITY  CLOUDY    91  80  68 S9        29.92F HX 108
PLATTSMOUTH    CLOUDY    91  81  71 SE10      29.93F HX 110
$$

NEZ044-045-051>053-067-222300-
OMAHA AREA

CITY           SKY/WX    TMP DP  RH WIND       PRES   REMARKS
OMAHA EPPLEY   PTSUNNY   94  80  64 SE17      29.91F HX 113
BLAIR          MOSUNNY   92  81  70 S7        29.93F HX 112
FREMONT        MOSUNNY   94  75  55 S8        29.92F HX 105
MILLARD        CLOUDY    93  82  71 SE10      29.91F HX 116
OFFUTT AFB     SUNNY     93  80  67 SE13      29.92F HX 112
PLATTSMOUTH    CLOUDY    91  81  71 SE10      29.93F HX 110
WAHOO          FAIR      92  76  59 S10G17    29.92S HX 104
$$




USA.gov is the U.S. government's official web portal to all federal, state and local government web resources and services.